Location: Bucharest
(44.4268°N, 26.1025°E)
Time: 01:26:35
(UTC+03:00)

O/OREOS (USA 219) - Pass Details

Date: 03 July 2022
Orbit: 621 x 646 km, 72.0° (Epoch: 22 May)

Event Time Altitude Azimuth Distance (km) Brightness Sun altitude
Rises 01:11:57 0° 337° (NNW) 2,964 ? -22.6°
Reaches altitude 10° 01:14:14 10° 340° (NNW) 2,052 ? -22.6°
Maximum altitude 01:18:51 73° 65° (ENE) 679 ? -22.6°
Enters shadow 01:19:39 58° 126° (SE) 757 ? -22.6°
